Regional Weather Roundup
Issued by NWS

Home | Current Version | Previous Version | Graphics & Text | Print | Product List | Glossary On
Versions: 1 2 3 4 5 6 7 8 9 10 11 12 13 14 15 16 17 18 19 20 21 22 23 24 25 26 27 28 29 30 31 32 33 34 35 36 37 38 39 40 41 42 43 44 45 46 47 48 49 50
000
ASUS43 KOAX 231802
RWRNE

WEATHER ROUNDUP FOR NEBRASKA
NATIONAL WEATHER SERVICE OMAHA NE
100 PM CDT SAT MAY 23 2015

NOTES: SATELLITE DATA IS BEING USED TO AUGMENT CLOUD COVER ABOVE
       12000 FEET.
       "FAIR" INDICATES FEW OR NO CLOUDS BELOW 12,000 FEET WITH NO
       SIGNIFICANT WEATHER AND/OR OBSTRUCTIONS TO VISIBILITY.

  * THESE STATIONS DO NOT REPORT WEATHER SUCH AS RAIN...SNOW OR FOG.

NEZ001>004-019>022-054>056-231900-
NEBRASKA PANHANDLE

CITY           SKY/WX    TMP DP  RH WIND       PRES   REMARKS
SCOTTSBLUFF    CLOUDY    56  52  86 E13       30.01F
6HR MIN TEMP:  46; 6HR MAX TEMP:  57;

ALLIANCE       CLOUDY    56  53  90 SE14      30.02F
6HR MIN TEMP:  47; 6HR MAX TEMP:  57; 6HR PCP: TRACE;

CHADRON        CLOUDY    56  52  86 SE8       30.03F FOG
6HR MIN TEMP:  50; 6HR MAX TEMP:  59;

KIMBALL          N/A    N/A N/A N/A MISG        N/A
SIDNEY         CLOUDY    54  54 100 E10       30.01F FOG
6HR MIN TEMP:  50; 6HR MAX TEMP:  54; 6HR PCP: TRACE;

$$

NEZ057>060-069>072-079>082-231900-
SOUTHWEST NEBRASKA

CITY           SKY/WX    TMP DP  RH WIND       PRES   REMARKS
NORTH PLATTE   LGT RAIN  54  53  97 SE13      30.06F
6HR MIN TEMP:  53; 6HR MAX TEMP:  54; 6HR PCP:  0.01;

IMPERIAL       CLOUDY    57  54  89 SE14      30.02F
6HR MIN TEMP:  52; 6HR MAX TEMP:  57;

LEXINGTON      CLOUDY    56  55  97 SE12      30.08F FOG
MCCOOK         CLOUDY    59  54  83 VRB6      30.00F
6HR MIN TEMP:  53; 6HR MAX TEMP:  59;

$$

NEZ005>010-023>029-035>040-094-231900-
NORTH CENTRAL NEBRASKA

CITY           SKY/WX    TMP DP  RH WIND       PRES   REMARKS
VALENTINE      CLOUDY    58  53  84 SE9       30.09F
6HR MIN TEMP:  49; 6HR MAX TEMP:  58;

AINSWORTH      CLOUDY    55  54  96 SE8       30.10F
BROKEN BOW     CLOUDY    54  52  93 SE15G24   30.11R FOG
6HR MIN TEMP:  53; 6HR MAX TEMP:  56;

ORD            CLOUDY    55  52  89 SE9       30.12S
6HR MIN TEMP:  52; 6HR MAX TEMP:  55;

$$

NEZ041-046>049-061>064-073>077-083>087-231900-
SOUTH CENTRAL NEBRASKA

CITY           SKY/WX    TMP DP  RH WIND       PRES   REMARKS
GRAND ISLAND   CLOUDY    58  53  84 SE7       30.14S
6HR MIN TEMP:  53; 6HR MAX TEMP:  58;

AURORA         CLOUDY    59  55  84 SE9       30.13S
HASTINGS       LGT RAIN  56  55  97 S8        30.13R FOG
6HR MIN TEMP:  53; 6HR MAX TEMP:  57; 6HR PCP:  0.03;

HEBRON         CLOUDY    61  54  78 SE13      30.12F
HOLDREGE       CLOUDY    55  53  93 SE9       30.09F
KEARNEY *      CLOUDY    55  54  94 SE10      30.12F
$$

NEZ011>018-030>034-042>045-231900-
NORTHEAST NEBRASKA

CITY           SKY/WX    TMP DP  RH WIND       PRES   REMARKS
NORFOLK        CLOUDY    59  54  83 SE9       30.15S
6HR MIN TEMP:  54; 6HR MAX TEMP:  60; 6HR PCP: TRACE;

ALBION         CLOUDY    57  53  87 SE8       30.13F FOG
BLAIR          CLOUDY    60  54  82 SE14      30.16F
COLUMBUS *     CLOUDY    59  50  72 S9        30.18S
FREMONT        CLOUDY    60  55  83 SE9       30.16F
TEKAMAH        CLOUDY    63  54  72 SE17      30.17S
6HR MIN TEMP:  57; 6HR MAX TEMP:  64; 6HR PCP: TRACE;

$$

NEZ050>053-065>068-078-088>093-231900-
SOUTHEAST NEBRASKA

CITY           SKY/WX    TMP DP  RH WIND       PRES   REMARKS
LINCOLN        CLOUDY    60  55  83 S15       30.16S
6HR MIN TEMP:  57; 6HR MAX TEMP:  61; 6HR PCP: TRACE;

OMAHA EPPLEY   CLOUDY    62  54  74 SE14      30.16F
6HR MIN TEMP:  59; 6HR MAX TEMP:  62; 6HR PCP: TRACE;

BEATRICE       CLOUDY    61  56  84 S12       30.15S
FALLS CITY     CLOUDY    65  57  75 SE10      30.16S
6HR MIN TEMP:  56; 6HR MAX TEMP:  65; 6HR PCP:  0.01;

NEBRASKA CITY  CLOUDY    62  56  79 S12       30.16F
PLATTSMOUTH    CLOUDY    60  56  84 SE7       30.17S
$$

NEZ044-045-051>053-067-231900-
OMAHA AREA

CITY           SKY/WX    TMP DP  RH WIND       PRES   REMARKS
OMAHA EPPLEY   CLOUDY    62  54  74 SE14      30.16F
6HR MIN TEMP:  59; 6HR MAX TEMP:  62; 6HR PCP: TRACE;

BLAIR          CLOUDY    60  54  82 SE14      30.16F
FREMONT        CLOUDY    60  55  83 SE9       30.16F
OFFUTT AFB     CLOUDY    61  56  83 SE9       30.16S
PLATTSMOUTH    CLOUDY    60  56  84 SE7       30.17S
WAHOO          CLOUDY    60  55  83 SE15      30.15F
$$


USA.gov is the U.S. government's official web portal to all federal, state and local government web resources and services.